Location: Caltech
(34.1382°N, 118.1253°W)
Time: 02:26:26
(UTC-07:00)

Cosmos 1943 Rocket - Visible Passes

Search period start: 31 July 2014 00:00
Search period end: 10 August 2014 00:00
Orbit: 812 x 844 km, 71.0° (Epoch: 30 July)

Date Brightness Start Highest point End Pass type
(mag) Time Alt. Az. Time Alt. Az. Time Alt. Az.
04 Aug 3.7 05:21:20 10° S 05:26:19 37° ESE 05:31:20 10° NE visible
05 Aug 3.8 05:02:33 10° SSE 05:07:20 32° ESE 05:12:09 10° NE visible
06 Aug 4.0 04:43:48 10° SSE 04:48:21 27° ESE 04:52:56 10° NE visible
07 Aug 4.2 04:25:06 10° SSE 04:29:23 24° E 04:33:41 10° NE visible
08 Aug 4.3 04:06:29 10° SSE 04:10:25 20° E 04:14:22 10° NE visible
09 Aug 4.5 03:47:56 10° SE 03:51:27 18° E 03:54:59 10° ENE visible
09 Aug 2.5 05:29:24 10° SW 05:34:42 49° WNW 05:40:05 10° N visible
